Location: Newark
(51.3318°N, 0.0053°E)
Time: 11:23:52
(UTC+00:00)

MOZHAYETS 4 - Pass Details

Date: 30 June 2022
Orbit: 660 x 679 km, 98.2° (Epoch: 10 August)

Event Time Altitude Azimuth Distance (km) Brightness Sun altitude
Rises 00:28:50 0° 111° (ESE) 3,028 10.9 -15.3°
Reaches altitude 10° 00:31:54 10° 89° (E) 2,115 10.4 -15.2°
Maximum altitude 00:34:31 15° 55° (NE) 1,791 10.5 -15.2°
Drops below altitude 10° 00:37:07 10° 20° (NNE) 2,116 11.6 -15.1°
Sets 00:40:11 0° 358° (N) 3,031 12.8 -15.1°
